Weather History for KJDN - December, 2013

Change the Weather History Date:

Wednesday, December 4, 2013

  Actual Average Record
Temperature  
Mean Temperature -5 °F 22 °F  
Max Temperature 5 °F 35 °F 73 °F (2007)
Min Temperature -15 °F 9 °F -28 °F (1972)
Degree Days  
Heating Degree Days 70 43  
Month to date heating degree days 184 170  
Since 1 July heating degree days 2121 2188  
Cooling Degree Days 0 0  
Month to date cooling degree days 0 0  
Year to date cooling degree days 520 421  
Moisture  
Dew Point -6 °F    
Average Humidity 78    
Maximum Humidity 87    
Minimum Humidity 68    
Precipitation  
Precipitation 0.01 in 0.01 in 0.15 in (1933)
Month to date precipitation 0.59 0.04  
Year to date precipitation 16.94 12.42  
Snow  
Snow 0.00 in - - ()
Month to date snowfall  
Since 1 July snowfall 0.0  
Snow Depth 0.00 in    
Sea Level Pressure  
Sea Level Pressure 30.39 in    
Wind  
Wind Speed 15 mph (NW)    
Max Wind Speed 22 mph    
Max Gust Speed 27 mph    
T = Trace of Precipitation, MM = Missing Value Source: NWS Daily Summary

Daily Weather History Graph

Daily Weather History Graph

Search for Another Location

Airport or City:

Trip Planner

Search our weather history database for the weather conditions in past years. The results will help you decide how hot, cold, wet, or windy it might be!

Date:

Astronomy

Dec. 04, 2013 Rise Set
Actual Time 7:37 AM MST 4:18 PM MST
Civil Twilight 7:02 AM MST 4:53 PM MST
Nautical Twilight 6:24 AM MST 5:32 PM MST
Astronomical Twilight 5:47 AM MST 6:09 PM MST
Moon 9:05 AM MST (12/4) 6:35 PM MST (12/4)
Length of Visible Light 9h 50m
Length of Day
8h 40m
Waxing Crescent, 5% of the Moon is Illuminated
Dec 4
Waxing Crescent
Dec 9
First Quarter
Dec 17
Full
Dec 25
Last Quarter
Jan 1
New

Hourly Weather History & Observations

Time (MST) Temp. Windchill Dew Point Humidity Pressure Visibility Wind Dir Wind Speed Gust Speed Precip Events Conditions
12:48 AM 5.0 °F -13.0 °F -0.9 °F 76% 30.32 in - NNW 15.0 mph - N/A   Unknown
1:48 AM 3.9 °F -14.3 °F -0.9 °F 80% 30.33 in - NNW 15.0 mph - N/A   Unknown
2:48 AM 3.9 °F -14.3 °F -0.9 °F 80% 30.34 in - NNW 15.0 mph - N/A   Unknown
3:48 AM 3.9 °F -14.3 °F -0.9 °F 80% 30.32 in - NNW 15.0 mph - N/A   Unknown
4:48 AM 3.9 °F -15.0 °F -2.0 °F 76% 30.33 in - NNW 16.1 mph - N/A   Unknown
5:48 AM 1.9 °F -19.2 °F -2.9 °F 80% 30.33 in - NNW 19.6 mph - N/A   Unknown
6:48 AM 1.9 °F -17.5 °F -4.0 °F 76% 30.35 in - NNW 16.1 mph - N/A   Unknown
7:48 AM 1.9 °F -14.7 °F -2.9 °F 80% 30.37 in - NW 11.5 mph - N/A   Unknown
8:48 AM 1.9 °F -16.9 °F -4.0 °F 76% 30.39 in - NW 15.0 mph - 0.01 in   Unknown
9:48 AM 1.0 °F -18.7 °F -5.1 °F 75% 30.40 in - NW 16.1 mph - N/A   Unknown
10:48 AM 1.9 °F -17.5 °F -5.1 °F 72% 30.41 in - NW 16.1 mph - N/A   Unknown
11:48 AM 3.0 °F -18.3 °F -5.1 °F 69% 30.38 in - NW 20.7 mph - N/A   Unknown
12:48 PM 1.9 °F -18.7 °F -5.1 °F 72% 30.36 in - NW 18.4 mph - N/A   Unknown
2:48 PM 1.0 °F -19.3 °F -7.1 °F 69% 30.37 in - NW 17.3 mph - N/A   Unknown
3:48 PM -0.0 °F -19.4 °F -7.1 °F 72% 30.39 in - NW 15.0 mph - N/A   Unknown
4:48 PM -0.9 °F -17.4 °F -8.0 °F 72% 30.40 in - NW 10.4 mph - N/A   Unknown
5:48 PM -0.9 °F -18.3 °F -7.1 °F 75% 30.42 in - NW 11.5 mph - N/A   Unknown
6:48 PM -0.9 °F -22.4 °F -7.1 °F 75% 30.42 in - NW 18.4 mph - N/A   Unknown
7:48 PM -5.1 °F -26.6 °F -11.0 °F 76% 30.43 in - NW 16.1 mph - N/A   Unknown
8:48 PM -6.0 °F -26.3 °F -13.0 °F 72% 30.44 in - NW 13.8 mph - N/A   Unknown
9:48 PM -9.0 °F - -15.0 °F 75% 30.45 in - Calm Calm - N/A   Unknown
10:48 PM -13.0 °F -28.6 °F -16.1 °F 86% 30.46 in - West 6.9 mph - N/A   Unknown
11:48 PM -9.0 °F -28.4 °F -15.0 °F 75% 30.45 in - West 11.5 mph - N/A   Unknown